Simultaneous Nadir Overpasses (SNOs) Predictions

Prediction of SNOs between METOP-B and NPP Satellite Orbit:

Table of predicted SNOs for the next 14.0 days since TLE Epoch: 1/6/2024
Index Date (METOP-B) Time (METOP-B) Lat,Lon (METOP-B) SZA (METOP-B ) Date (NPP) Time (NPP) Lat,Lon (NPP) SZA (NPP ) Distance(km) Time Diff (sec)
1 01/10/2024 09:32:54 73.71, 29.56 95.81 01/10/2024 09:31:46 73.70, 26.95 95.94 81.53 68
2 01/10/2024 10:23:38 -73.60,-163.36 84.30 01/10/2024 10:22:29 -73.64,-165.59 84.14 70.31 69
3 01/10/2024 11:14:22 73.40, 3.51 95.52 01/10/2024 11:13:10 73.40, 2.26 95.60 39.71 72
4 01/10/2024 12:05:05 -73.34, 170.71 84.54 01/10/2024 12:03:53 -73.34, 169.71 84.48 32.07 72
5 01/10/2024 12:55:49 73.13, -22.41 95.27 01/10/2024 12:54:35 73.15, -22.56 95.32 5.35 74
6 01/10/2024 13:46:32 -73.08, 144.80 84.79 01/10/2024 13:45:18 -73.09, 144.88 84.76 3.10 74
7 01/10/2024 14:37:11 73.12, -47.78 95.25 01/10/2024 14:36:04 73.10, -47.83 95.25 2.66 67
8 01/10/2024 15:27:53 -73.12, 119.54 84.76 01/10/2024 15:26:48 -73.10, 119.50 84.76 2.66 65
9 01/10/2024 16:18:33 73.11, -73.14 95.23 01/10/2024 16:17:34 73.11, -73.22 95.25 2.38 59
10 01/10/2024 17:09:15 -73.11, 94.18 84.78 01/10/2024 17:08:18 -73.10, 94.12 84.77 2.03 57
11 01/10/2024 17:59:55 73.10, -98.51 95.21 01/10/2024 17:59:04 73.11, -98.60 95.24 3.18 51
12 01/10/2024 18:50:37 -73.09, 68.81 84.80 01/10/2024 18:49:48 -73.10, 68.73 84.78 2.62 49
13 01/10/2024 19:41:17 73.09,-123.87 95.19 01/10/2024 19:40:33 73.06,-123.87 95.18 2.57 44
14 01/10/2024 20:31:59 -73.08, 43.44 84.82 01/10/2024 20:31:17 -73.06, 43.46 84.84 3.04 42
15 01/10/2024 21:22:39 73.07,-149.24 95.17 01/10/2024 21:22:03 73.07,-149.25 95.17 0.97 36
16 01/10/2024 22:13:21 -73.07, 18.08 84.84 01/10/2024 22:12:47 -73.06, 18.08 84.85 1.37 34
17 01/10/2024 23:04:01 73.06,-174.61 95.15 01/10/2024 23:03:33 73.07,-174.63 95.16 1.08 28
18 01/10/2024 23:54:43 -73.06, -7.29 84.86 01/10/2024 23:54:17 -73.06, -7.30 84.85 0.47 26
19 01/11/2024 00:45:23 73.05, 160.03 95.13 01/11/2024 00:45:03 73.07, 159.99 95.16 2.70 20
20 01/11/2024 01:36:05 -73.05, -32.65 84.88 01/11/2024 01:35:47 -73.06, -32.68 84.86 2.07 18
21 01/11/2024 02:26:45 73.04, 134.66 95.11 01/11/2024 02:26:32 73.02, 134.71 95.09 2.35 13
22 01/11/2024 03:17:27 -73.04, -58.02 84.90 01/11/2024 03:17:16 -73.02, -57.95 84.92 2.98 11
23 01/11/2024 04:08:07 73.03, 109.30 95.09 01/11/2024 04:08:02 73.03, 109.33 95.09 1.25 5
24 01/11/2024 04:58:49 -73.02, -83.38 84.92 01/11/2024 04:58:46 -73.02, -83.33 84.93 1.69 3
25 01/11/2024 05:49:29 73.02, 83.93 95.07 01/11/2024 05:49:32 73.03, 83.95 95.08 1.87 3
26 01/11/2024 06:40:11 -73.01,-108.75 84.95 01/11/2024 06:40:16 -73.02,-108.72 84.94 1.60 5
27 01/11/2024 07:30:51 73.00, 58.56 95.05 01/11/2024 07:31:02 73.03, 58.57 95.07 3.38 11
28 01/11/2024 08:21:33 -73.00,-134.12 84.97 01/11/2024 08:21:46 -73.03,-134.10 84.95 2.84 13
29 01/11/2024 09:12:13 72.99, 33.20 95.03 01/11/2024 09:12:31 72.99, 33.30 95.01 3.33 18
30 01/11/2024 10:02:54 -73.04,-159.37 84.94 01/11/2024 10:03:16 -73.03,-159.48 84.95 3.58 22
31 01/11/2024 10:53:34 72.98, 7.83 95.00 01/11/2024 10:54:00 72.99, 7.92 95.00 2.98 26
32 01/11/2024 11:44:16 -72.98, 175.15 85.01 01/11/2024 11:44:44 -72.98, 175.25 85.01 3.15 28
33 01/11/2024 12:34:55 73.02, -17.43 95.03 01/11/2024 12:35:30 72.99, -17.46 95.00 3.16 35
34 01/11/2024 13:25:38 -72.97, 149.79 85.03 01/11/2024 13:26:14 -72.98, 149.87 85.02 3.33 36
35 01/11/2024 14:16:17 73.01, -42.79 95.01 01/11/2024 14:17:00 73.00, -42.85 94.99 2.13 43
36 01/11/2024 15:06:59 -73.01, 124.53 85.00 01/11/2024 15:07:44 -72.99, 124.49 85.03 2.36 45
37 01/11/2024 15:57:39 73.00, -68.16 94.99 01/11/2024 15:58:30 73.00, -68.23 94.98 2.25 51
38 01/11/2024 16:48:21 -72.99, 99.16 85.03 01/11/2024 16:49:14 -72.99, 99.11 85.04 1.89 53
39 01/11/2024 17:39:01 72.98, -93.52 94.97 01/11/2024 17:40:00 73.00, -93.61 94.98 3.41 59
40 01/11/2024 18:29:43 -72.98, 73.80 85.05 01/11/2024 18:30:44 -72.99, 73.72 85.04 2.72 61
41 01/11/2024 19:20:23 72.97,-118.89 94.94 01/11/2024 19:21:29 72.95,-118.88 94.91 1.91 66
42 01/11/2024 20:11:05 -72.97, 48.43 85.07 01/11/2024 20:12:13 -72.95, 48.45 85.11 2.69 68
43 01/11/2024 21:01:46 72.91,-144.36 94.88 01/11/2024 21:02:59 72.96,-144.26 94.91 6.34 73
44 01/11/2024 21:52:29 -72.86, 22.85 85.18 01/11/2024 21:53:42 -72.90, 23.18 85.17 11.54 73
45 01/11/2024 22:43:13 72.64,-170.25 94.63 01/11/2024 22:44:24 72.71,-169.11 94.62 38.47 71
46 01/11/2024 23:33:56 -72.59, -3.03 85.42 01/11/2024 23:35:07 -72.65, -1.68 85.45 45.36 71
47 01/12/2024 00:24:41 72.32, 163.77 94.34 01/12/2024 00:25:48 72.41, 166.13 94.28 79.82 67
48 01/12/2024 01:15:24 -72.27, -29.00 85.71 01/12/2024 01:16:30 -72.30, -26.35 85.84 89.79 66



Historial Predications of SNOs between METOP-B and NPP
